Regional Weather Roundup
Issued by NWS Upton, NY

Current Version | Previous Version | Text Only | Print | Product List | Glossary On
Versions: 1 2 3 4 5 6 7 8 9 10 11 12 13 14 15 16 17 18 19 20 21 22 23 24 25 26 27 28 29 30 31 32 33 34 35 36 37 38 39 40 41 42 43 44 45 46 47 48
000
ASUS41 KOKX 221305
RWROKX

REGIONAL WEATHER ROUNDUP
NATIONAL WEATHER SERVICE NEW YORK NY
800 AM EST MON DEC 22 2014

NOTE: "FAIR" INDICATES FEW OR NO CLOUDS BELOW 12,000 FEET WITH NO
SIGNIFICANT WEATHER AND/OR OBSTRUCTIONS TO VISIBILITY.

NYZ071-072-176-178-NJZ106-104-221400-
NEW YORK CITY METRO AREA


CITY           SKY/WX    TMP DP  RH WIND       PRES   REMARKS
CENTRAL PARK   CLOUDY    36  31  82 NE5       30.33F WCI  32
LAGUARDIA APRT CLOUDY    37  32  82 NE7       30.32R WCI  32
KENNEDY INTL   CLOUDY    39  33  79 N8        30.33R WCI  33
NEWARK/LIBERTY CLOUDY    36  32  85 NE6       30.33R WCI  31
BRNX BOT. GARD   N/A     36  32  87 E7        30.31F WCI  30
TETERBORO      CLOUDY    36  31  82 N5        30.32R WCI  32
$$

NYZ177-179-078>081-221400-
LONG ISLAND NEW YORK

CITY           SKY/WX    TMP DP  RH WIND       PRES   REMARKS
FARMINGDALE    CLOUDY    38  35  89 NE7       30.32R WCI  33
ISLIP          CLOUDY    39  35  86 NE9       30.30R WCI  33
SHIRLEY        CLOUDY    38  36  92 NE3       30.33R
WESTHAMPTON    CLOUDY    39  36  89 NE8       30.33S WCI  33
MONTAUK POINT    N/A     41  37  86 NE10G17   30.33S
$$

NYZ052-065-067-221400-
HUDSON VALLEY

CITY           SKY/WX    TMP DP  RH WIND       PRES   REMARKS
WHITE PLAINS   CLOUDY    35  32  88 NE3       30.30R
NEWBURGH       NOT AVBL
MONTGOMERY     CLOUDY    31  28  89 NE3       30.32S
POUGHKEEPSIE   CLOUDY    33  28  81 N3        30.34S
ALBANY         FLURRIES  29  24  82 N3        30.36S
$$

NJZ001-105-106-008-010-013-015-019>022-104-221400-
NEW JERSEY

CITY           SKY/WX    TMP DP  RH WIND       PRES   REMARKS
NEWARK/LIBERTY CLOUDY    36  32  85 NE6       30.33R WCI  31
TETERBORO      CLOUDY    36  31  82 N5        30.32R WCI  32
CALDWELL       CLOUDY    34  30  85 CALM      30.33S
MORRISTOWN     CLOUDY    34  30  86 NE5       30.32S WCI  30
SOMERVILLE     CLOUDY    35  29  78 MISG      30.31R
SUSSEX         CLOUDY    31  27  85 NE6       30.31S WCI  25
ANDOVER          N/A     30  27  88 VRB5      30.31S WCI  25
TRENTON        CLOUDY    34  28  79 NE3       30.32R
MILLVILLE      MOCLDY    24  21  88 CALM      30.30R
ATLANTIC CITY  MOCLDY    26  23  88 CALM      30.30S
WRIGHTSTOWN    PTCLDY    31  28  91 N5        30.28S WCI  26
TOMS RIVER     MOCLDY    30  30 100 N3        30.31S
BELMAR         CLOUDY    36  28  75 N6        30.30F WCI  31
$$

PAZ047>061-062-071-221400-
EASTERN PENNSYLVANIA

CITY           SKY/WX    TMP DP  RH WIND       PRES   REMARKS
PHILADELPHIA   PTCLDY    32  25  75 N5        30.32S WCI  27
ALLENTOWN      CLOUDY    32  26  78 CALM      30.32R
SCRANTON       CLOUDY    32  25  75 VRB5      30.27R WCI  27
$$

CTZ002-004>006-009-010-012-RIZ004-006-007-MAZ004-011-015-221400-
SOUTHERN NEW ENGLAND
 IN CT

CITY           SKY/WX    TMP DP  RH WIND       PRES   REMARKS
BRADLEY INTL   CLOUDY    34  30  85 N6        30.34S WCI  29
HARTFORD       CLOUDY    34  30  85 VRB5      30.36S WCI  30
DANBURY        CLOUDY    34  29  82 NE6       30.33R HAZE    WCI  29
WTRBRY/OXFORD  CLOUDY    34  27  75 E7        30.32R WCI  28
BRIDGEPORT     CLOUDY    36  33  89 NE9       30.33S WCI  29
MERIDEN        CLOUDY    34  30  85 N6        30.35R WCI  29
NEW HAVEN      MOCLDY    37  32  82 N7        30.34R WCI  32
CHESTER        CLOUDY    34  32  93 N5        30.33R WCI  30
GROTON         CLOUDY    37  34  89 NE12      30.34R WCI  29
WILLIMANTIC    CLOUDY    36  31  82 NE5       30.35S WCI  32

 IN RI

CITY           SKY/WX    TMP DP  RH WIND       PRES   REMARKS
PROVIDENCE     CLOUDY    35  31  85 N8        30.37S WCI  29
BLOCK ISLAND   PTCLDY    39  34  81 NE9G16    30.33S WCI  33
WESTERLY       CLEAR     34  31  88 NE8       30.35S WCI  27

 IN MA

CITY           SKY/WX    TMP DP  RH WIND       PRES   REMARKS
BOSTON         MOCLDY    34  28  79 CALM      30.39S
WORCESTER      CLOUDY    29  26  89 NE6       30.34R WCI  23
WESTFIELD      CLOUDY    33  30  88 N7        30.35F WCI  27
PROVINCETOWN   CLOUDY    37  36  93 CALM      30.37S
NANTUCKET      MOCLDY    42  40  92 E3        30.34R
$$

ANZ330-335-338-340-345-350-353-355-221400-
COASTAL MARINE OBSERVATIONS


STATION/POSITION TIME  SKY/WX   TEMP    WIND        PRES    VSBY  WAVE
                                AIR SEA DIR/SP/G                  HT/PER
                 (UTC)          (F)     (DEG/KT/KT) (MB)    (MI)  (FT/S)
NY HARB ENTRANCE 1300            39 46   10/  8/ 10 1026.8          2/ 5
4S FIRE IS       1300               47                N/A           3/ 5
20S FIRE ISLAND  1200            45 49              1025.5          3/ 5
23SW MTP         1300                                 N/A           4/ 4
HUDSON CANYON    1300            46 55  150/  2/  4 1025.4          3/ 8
EXECUTION ROCKS  1300            38 41   40/ 12/ 16   N/A
WESTERN LI SOUND 1300            38      60/ 10/ 14   N/A           1/ 3
CENTRAL LI SOUND 1200            38 44   60/ 12/ 14   N/A           2/ 3
EASTERN LI SOUND NOT AVBL
ROBBINS REEF     1300            36     290/  6/  6 1025.5
$$


>>>>>>>>>>>>>>>>>>>>>>>>>>>> KEY <<<<<<<<<<<<<<<<<<<<<<<<<<<
>                                                          <
>     SKY/WX - SKY CONDITION/PRESENT WEATHER               <
>     TMP    - TEMPERATURE IN FAHRENHEIT                   <
>     DP     - DEWPOINT IN FAHRENHEIT                      <
>     RH     - RELATIVE HUMIDITY IN PERCENT                <
>     WIND   - DIRECTION AND SPEED IN MPH                  <
>     PRES   - MEAN SEA LEVEL PRESSURE IN INCHES OF HG     <
>     WCI    - WIND CHILL INDEX                            <
>     VSB    - VISIBILITY IN MILES                         <
>     HX     - HEAT INDEX                                  <
>     TC     - TEMPERATURE IN CELSIUS                      <
>     VRB    - VARIABLE WIND DIRECTION                     <
>                                                          <
>>>>>>>>>>>>>>>>>>>>>>>>>>>> KEY <<<<<<<<<<<<<<<<<<<<<<<<<<<





USA.gov is the U.S. government's official web portal to all federal, state and local government web resources and services.